E20ZNR-1 Weather Reports


time (UTC)temp
F
wind
direction
speed
knots
gust
knots
rain 1hr
in
rain 24hr
in
rain mn
in
humidity
%
barometer
mb
20260509123924 88 0 0.0 0.0 0.00 0.00 0.00 85 1004.0
20260509122358 89 0 0.0 0.0 0.00 0.00 0.00 84 1003.0
20260509120834 89 0 0.0 0.0 0.00 0.00 0.00 84 1003.0
20260509115308 89 0 0.0 0.0 0.00 0.00 0.00 81 1003.0
20260509113743 90 0 0.0 0.0 0.00 0.00 0.00 76 1003.0
20260509112219 90 0 0.0 0.0 0.00 0.00 0.00 73 1003.0
20260509110654 91 0 0.0 0.0 0.00 0.00 0.00 69 1003.0
20260509105128 92 0 0.0 0.0 0.00 0.00 0.00 66 1002.0
20260509103604 93 0 0.0 0.0 0.00 0.00 0.00 62 1002.0
20260509102037 94 0 0.0 0.0 0.00 0.00 0.00 59 1002.0
20260509100513 94 0 0.0 0.0 0.00 0.00 0.00 58 1002.0
20260509094948 95 0 0.0 0.0 0.00 0.00 0.00 56 1002.0
20260509093423 97 0 0.0 0.0 0.00 0.00 0.00 54 1002.0
20260509091857 98 0 0.0 0.0 0.00 0.00 0.00 54 1002.0
20260509090331 98 0 0.0 0.0 0.00 0.00 0.00 55 1002.0
20260509084806 96 0 0.0 0.0 0.00 0.00 0.00 55 1002.0
20260509083240 95 0 0.0 0.0 0.00 0.00 0.00 57 1002.0
20260509081714 98 0 0.0 0.0 0.00 0.00 0.00 51 1003.0
20260509080149 98 0 0.0 0.0 0.00 0.00 0.00 53 1003.0
20260509074623 96 0 0.0 0.0 0.00 0.00 0.00 57 1003.0
20260509073058 98 0 0.0 0.0 0.00 0.00 0.00 57 1003.0
20260509071532 97 0 0.0 0.0 0.00 0.00 0.00 55 1004.0
20260509070007 98 0 0.0 0.0 0.00 0.00 0.00 61 1004.0
20260509064442 96 0 0.0 0.0 0.00 0.00 0.00 61 1004.0
20260509062917 98 0 0.0 0.0 0.00 0.00 0.00 60 1004.0
20260509061352 98 0 0.0 0.0 0.00 0.00 0.00 62 1005.0
20260509055826 97 0 0.0 0.0 0.00 0.00 0.00 61 1005.0
20260509054300 98 0 0.0 0.0 0.00 0.00 0.00 60 1006.0
20260509052735 96 0 0.0 0.0 0.00 0.00 0.00 63 1006.0
20260509051210 97 0 0.0 0.0 0.00 0.00 0.00 64 1006.0
20260509045644 95 0 0.0 0.0 0.00 0.00 0.00 68 1007.0
20260509044118 94 0 0.0 0.0 0.00 0.00 0.00 71 1007.0
20260509042553 94 0 0.0 0.0 0.00 0.00 0.00 68 1007.0
20260509041027 96 0 0.0 0.0 0.00 0.00 0.00 69 1007.0
20260509035502 94 0 0.0 0.0 0.00 0.00 0.00 72 1007.0
20260509033936 94 0 0.0 0.0 0.00 0.00 0.00 71 1008.0
20260509032410 94 0 0.0 0.0 0.00 0.00 0.00 70 1008.0
20260509030845 93 0 0.0 0.0 0.00 0.00 0.00 73 1008.0
20260509025320 95 0 0.0 0.0 0.00 0.00 0.00 73 1008.0
20260509023754 93 0 0.0 0.0 0.00 0.00 0.00 78 1008.0
20260509022227 100 0 0.0 0.0 0.00 0.00 0.00 67 1008.0
20260509020702 102 0 0.0 0.0 0.00 0.00 0.00 69 1008.0
20260509015137 100 0 0.0 0.0 0.00 0.00 0.00 78 1008.0
20260509013611 96 0 0.0 0.0 0.00 0.00 0.00 92 1008.0
20260509012047 93 0 0.0 0.0 0.00 0.00 0.00 99 1008.0
20260509010520 85 0 0.0 0.0 0.00 0.00 0.00 99 1008.0
20260509004953 85 0 0.0 0.0 0.00 0.00 0.00 99 1008.0
20260509003428 83 0 0.0 0.0 0.00 0.00 0.00 99 1008.0
20260509001903 82 0 0.0 0.0 0.00 0.00 0.00 99 1008.0
20260509000337 82 0 0.0 0.0 0.00 0.00 0.00 99 1008.0
20260508234812 81 0 0.0 0.0 0.00 0.00 0.00 99 1008.0
20260508233247 81 0 0.0 0.0 0.00 0.00 0.00 99 1007.0
20260508231721 81 0 0.0 0.0 0.00 0.00 0.00 99 1007.0
20260508230156 80 0 0.0 0.0 0.00 0.00 0.00 99 1007.0
20260508224631 80 0 0.0 0.0 0.00 0.00 0.00 99 1007.0
20260508223106 80 0 0.0 0.0 0.00 0.00 0.00 99 1006.0
20260508221541 80 0 0.0 0.0 0.00 0.00 0.00 99 1006.0
20260508220016 80 0 0.0 0.0 0.00 0.00 0.00 99 1006.0
20260508214451 81 0 0.0 0.0 0.00 0.00 0.00 99 1006.0
20260508212925 80 0 0.0 0.0 0.00 0.00 0.00 99 1006.0
20260508211359 80 0 0.0 0.0 0.00 0.00 0.00 99 1005.0
20260508205834 80 0 0.0 0.0 0.00 0.00 0.00 99 1005.0
20260508204309 81 0 0.0 0.0 0.00 0.00 0.00 99 1005.0
20260508202743 81 0 0.0 0.0 0.00 0.00 0.00 99 1005.0
20260508201218 81 0 0.0 0.0 0.00 0.00 0.00 99 1005.0
20260508195653 81 0 0.0 0.0 0.00 0.00 0.00 99 1005.0
20260508194126 81 0 0.0 0.0 0.00 0.00 0.00 99 1004.0
20260508192600 81 0 0.0 0.0 0.00 0.00 0.00 99 1005.0
20260508191529 81 0 0.0 0.0 0.00 0.00 0.00 99 1005.0
20260508190004 81 0 0.0 0.0 0.00 0.00 0.00 99 1005.0
20260508184438 81 0 0.0 0.0 0.00 0.00 0.00 99 1006.0
20260508182912 81 0 0.0 0.0 0.00 0.00 0.00 99 1006.0
20260508181347 81 0 0.0 0.0 0.00 0.00 0.00 99 1006.0
20260508175822 81 0 0.0 0.0 0.00 0.00 0.00 99 1006.0
20260508174256 82 0 0.0 0.0 0.00 0.00 0.00 99 1007.0
20260508172730 81 0 0.0 0.0 0.00 0.00 0.00 99 1007.0
20260508171205 82 0 0.0 0.0 0.00 0.00 0.00 99 1007.0
20260508165639 82 0 0.0 0.0 0.00 0.00 0.00 99 1007.0
20260508164114 82 0 0.0 0.0 0.00 0.00 0.00 99 1007.0
20260508162549 82 0 0.0 0.0 0.00 0.00 0.00 99 1007.0
20260508161022 82 0 0.0 0.0 0.00 0.00 0.00 99 1006.0
20260508155457 82 0 0.0 0.0 0.00 0.00 0.00 99 1006.0
20260508153932 82 0 0.0 0.0 0.00 0.00 0.00 1006.0
20260508152405 83 0 0.0 0.0 0.00 0.00 0.00 99 1007.0
20260508150840 83 0 0.0 0.0 0.00 0.00 0.00 99 1007.0
20260508145315 82 0 0.0 0.0 0.00 0.00 0.00 99 1007.0
20260508143750 82 0 0.0 0.0 0.00 0.00 0.00 99 1007.0
20260508142224 82 0 0.0 0.0 0.00 0.00 0.00 99 1007.0
20260508140659 83 0 0.0 0.0 0.00 0.00 0.00 99 1007.0
20260508135134 83 0 0.0 0.0 0.00 0.00 0.00 99 1007.0
20260508133609 83 0 0.0 0.0 0.00 0.00 0.00 99 1006.0
20260508132043 83 0 0.0 0.0 0.00 0.00 0.00 99 1006.0
20260508130519 83 0 0.0 0.0 0.00 0.00 0.00 99 1006.0